Location: Morosaglia
(42.4360°N, 9.3069°E)
Time: 18:59:04
(UTC+00:00)

Cosmos 1933 - Pass Details

Date: 07 June 2020
Orbit: 546 x 564 km, 82.5° (Epoch: 05 July)

Event Time Altitude Azimuth Distance (km) Brightness Sun altitude
Rises 02:26:03 0° 357° (N) 2,740 7.6 -12.2°
Reaches altitude 10° 02:28:18 10° 3° (N) 1,838 6.8 -11.9°
Maximum altitude 02:32:13 49° 79° (E) 718 4.3 -11.4°
Drops below altitude 10° 02:36:06 10° 155° (SSE) 1,815 5.8 -10.9°
Sets 02:38:18 0° 161° (SSE) 2,701 6.6 -10.6°
